Wind_Speed
21 25 28 29 29 27 25 25 25 24 23 22 20 20 20 20 21 21 21 22 21 19 19 19 19 19 19 19 18 18 19 21 22 22 22 22 22 22 22 21 21 21 21 21 21 22 23 24 24 25 26 29 31 33 35 38 40 40 38 37 38 40 41 41 41 40 39 39 37 35 35 35 36 37 35 36 36 36 36 36 37 38 38 38 38
21 24 29 31 31 29 27 26 25 24 22 21 21 21 21 22 22 22 21 21 21 20 19 19 19 20 21 21 20 19 19 20 22 22 22 22 23 23 23 23 21 21 21 22 22 23 24 25 27 28 29 31 32 34 34 35 38 40 40 39 40 39 38 41 42 41 42 42 40 38 37 37 39 38 37 37 38 38 37 36 37 38 38 38 38
24 24 28 32 32 30 28 26 24 23 22 21 21 21 23 23 23 23 22 21 21 20 19 19 20 20 21 22 22 21 21 21 21 23 24 23 23 23 24 24 23 23 23 23 24 25 26 28 31 33 35 36 37 37 35 34 35 38 40 40 40 39 38 40 42 41 42 43 42 40 39 39 41 40 39 39 39 40 39 37 38 39 39 39 38
26 27 30 32 33 30 28 25 23 22 21 21 22 22 23 22 21 23 23 21 20 20 20 20 20 21 21 22 22 22 22 21 22 24 24 24 23 23 24 23 24 25 25 25 26 27 29 31 33 37 40 41 41 39 37 35 33 34 37 40 41 39 38 39 41 41 41 43 43 42 41 41 41 40 39 40 39 41 41 38 37 39 40 40 39
26 29 31 33 33 30 27 24 22 21 20 21 22 22 22 21 21 22 21 20 20 20 21 21 21 21 21 22 23 23 22 22 23 24 24 24 23 23 23 24 25 26 26 27 27 28 30 33 35 39 43 45 44 40 37 37 35 34 35 38 41 41 40 39 40 40 41 43 43 42 41 41 42 40 39 40 40 40 41 39 38 39 40 40 40
26 28 31 33 32 29 25 22 21 20 20 21 22 22 22 22 22 21 20 20 20 20 21 22 21 21 22 23 24 25 24 23 24 26 25 25 24 23 23 24 25 26 26 27 27 28 31 33 36 40 43 46 44 39 36 36 35 35 36 38 39 39 39 39 38 39 41 44 43 42 42 42 42 41 40 39 40 40 40 40 38 38 39 39 39
25 28 30 32 30 27 23 21 19 20 21 22 22 22 22 21 21 21 21 21 21 21 22 22 22 22 22 23 23 24 25 25 26 27 27 27 27 25 24 24 25 25 26 27 27 29 30 32 36 39 42 45 42 36 34 32 31 32 34 37 38 37 37 36 36 39 42 44 44 43 43 42 42 42 41 40 41 40 40 40 38 37 37 38 38
26 28 30 29 27 24 21 20 20 20 21 22 22 22 21 21 20 21 22 23 22 21 22 22 21 21 22 22 22 23 24 26 27 27 28 28 27 26 25 26 26 25 26 27 27 28 29 30 35 39 41 42 39 34 31 28 27 29 30 32 37 39 37 34 35 39 42 43 43 41 41 41 41 41 42 40 40 39 40 39 37 35 35 36 36
26 28 29 27 24 22 20 20 20 20 20 21 22 22 21 20 21 22 23 23 22 22 22 21 20 21 21 20 20 22 24 26 26 25 26 27 26 27 28 28 27 25 25 26 26 26 28 30 34 38 39 41 37 32 29 26 25 26 28 29 33 38 38 35 35 38 40 42 42 39 39 41 41 41 42 41 38 36 37 37 37 37 36 36 36
27 28 28 26 23 21 19 19 19 19 20 21 22 21 20 20 20 22 22 22 22 21 20 20 20 20 20 19 19 21 24 25 24 24 25 26 26 28 28 28 27 25 25 25 25 25 27 29 34 37 38 40 36 29 28 24 22 20 24 29 31 34 36 36 36 36 36 38 40 38 39 41 40 40 41 41 38 35 36 38 38 37 37 38 38
27 28 27 25 23 21 19 19 19 19 20 21 21 21 20 19 20 22 22 21 21 20 19 19 19 19 19 19 20 21 23 24 25 25 26 26 26 27 27 26 25 24 24 25 25 25 26 28 33 36 38 39 36 29 27 26 22 18 16 24 30 32 34 35 36 35 33 35 37 38 39 39 39 38 39 40 38 36 37 39 38 36 38 39 38
27 27 25 24 22 20 20 20 19 20 21 21 22 21 20 19 20 21 22 21 20 19 19 19 19 19 19 20 21 21 22 23 24 25 26 25 25 25 25 25 24 23 24 25 25 25 25 27 32 36 38 38 37 33 28 27 25 21 15 16 23 30 34 34 35 35 34 35 36 38 38 37 36 38 39 39 38 37 38 39 38 37 38 37 36
26 25 24 24 23 21 20 20 20 21 22 23 23 21 20 20 20 21 21 20 19 19 20 20 20 19 19 20 21 21 21 22 23 23 24 24 24 24 23 23 24 23 23 24 24 25 26 28 31 35 37 39 39 37 30 25 26 24 18 15 17 24 31 34 35 35 34 35 36 37 36 35 36 37 38 39 39 39 39 38 38 38 37 36 35
25 24 24 24 23 21 21 21 22 22 23 24 24 23 22 21 21 22 21 20 20 20 21 21 20 20 20 20 21 20 20 21 22 22 23 23 24 24 23 23 23 24 24 24 24 25 26 28 30 33 35 38 41 40 34 27 24 24 20 17 16 22 29 33 36 37 36 36 37 38 36 36 38 39 38 39 41 40 39 38 38 38 37 35 34
24 23 24 25 25 23 22 23 24 24 25 26 26 25 23 22 22 22 22 21 21 22 21 21 20 20 20 20 20 19 19 20 21 22 23 24 24 24 24 23 23 24 24 24 24 25 26 27 29 31 32 35 40 41 38 32 26 23 21 17 17 20 26 31 35 38 39 39 39 40 39 38 39 40 40 42 42 41 39 39 38 37 36 35 35
24 24 25 27 27 26 25 25 25 26 26 26 27 27 25 23 22 23 23 23 22 22 22 21 20 20 19 20 20 19 18 19 21 22 23 24 24 24 24 23 23 23 22 22 24 25 24 25 28 29 30 32 37 40 39 36 31 25 21 18 17 18 20 26 33 38 41 41 41 41 41 39 38 39 41 43 43 41 40 40 40 39 39 37 37
24 25 27 28 29 28 27 27 27 27 27 27 27 28 26 24 22 23 24 23 22 22 21 20 20 20 19 20 21 20 18 17 18 20 22 23 23 24 25 24 23 22 21 21 24 24 23 24 26 27 28 30 34 38 38 36 35 30 23 19 18 18 18 21 29 36 40 42 42 41 41 40 39 39 40 42 42 41 42 43 42 40 40 39 37
24 26 27 29 31 30 29 29 29 29 28 27 27 28 27 25 24 23 24 24 24 23 22 20 20 20 20 21 21 22 21 18 17 18 20 22 23 24 24 24 23 22 20 21 23 23 23 23 24 25 27 28 31 36 37 35 35 34 27 20 17 18 18 19 25 33 39 41 42 40 39 40 40 40 41 42 43 44 45 44 42 40 41 40 36
26 27 28 30 32 33 32 31 30 30 30 28 28 28 28 27 25 24 25 26 25 24 23 22 21 21 23 23 22 22 23 21 17 17 20 22 22 23 24 24 23 21 20 21 22 22 22 22 22 23 25 26 29 33 36 35 35 36 31 23 19 18 19 20 23 28 34 38 41 41 39 39 40 40 42 43 44 46 46 44 42 41 41 39 36
28 29 29 31 34 34 34 34 32 31 30 28 28 29 29 28 27 26 26 26 26 26 25 24 23 23 25 25 23 22 24 22 18 17 20 22 22 22 23 24 23 22 21 21 21 21 21 22 21 22 23 24 26 29 33 35 34 34 33 28 21 18 20 22 22 24 28 33 39 42 41 40 41 41 42 43 45 47 47 45 43 42 41 38 36
31 32 31 32 34 36 36 36 34 32 30 28 28 29 29 28 28 28 27 27 26 27 27 25 24 23 24 25 24 23 22 21 19 19 21 22 22 22 22 23 24 23 22 21 21 21 21 21 20 21 22 22 22 26 31 34 33 32 32 32 27 21 20 23 23 20 22 27 32 38 41 41 41 43 43 44 46 47 47 47 45 43 42 40 37
33 35 34 33 35 36 37 36 34 32 30 29 29 29 29 29 30 30 28 27 27 27 27 26 25 24 24 24 24 23 23 22 21 20 20 21 22 21 21 22 24 24 23 22 20 20 20 21 20 20 20 20 20 23 27 32 33 31 31 33 31 22 19 21 23 21 17 21 25 31 37 39 39 41 42 43 45 46 47 48 47 45 44 41 39
35 36 36 36 36 37 38 37 35 32 30 29 30 31 30 30 31 32 30 27 26 26 26 26 25 25 24 23 22 22 23 23 21 19 19 20 21 21 21 21 23 24 24 22 20 19 19 19 19 19 19 19 20 21 23 28 32 30 29 32 31 25 19 18 20 21 15 14 21 24 30 36 38 40 41 41 41 43 45 45 46 45 44 43 41
37 38 38 37 37 37 38 37 37 35 31 30 30 31 30 30 32 34 32 28 25 24 25 25 26 26 25 23 22 21 21 22 22 20 19 20 21 21 21 21 22 23 24 22 20 19 19 19 18 18 19 19 19 20 21 24 27 28 28 30 32 31 28 22 19 19 16 7 18 22 25 31 35 39 41 41 39 40 42 43 43 43 44 44 44
39 39 39 39 38 37 37 38 39 36 32 31 31 31 31 31 32 35 34 29 24 23 24 24 25 26 25 24 23 21 20 23 23 20 18 20 22 22 22 21 21 22 23 22 20 18 18 19 18 18 18 19 20 21 20 21 23 25 27 29 32 35 35 29 23 20 16 9 8 18 24 28 32 34 37 39 38 38 39 41 42 43 43 44 46
39 39 40 41 39 36 37 38 38 34 32 33 33 31 32 32 34 37 34 26 23 25 24 23 23 24 23 23 23 22 22 24 25 22 20 21 22 23 23 21 21 22 23 22 20 18 17 17 17 17 18 19 21 22 21 18 19 22 25 27 31 37 38 35 30 23 18 17 11 5 14 22 29 33 33 35 37 38 39 39 40 41 43 45 47
38 38 38 38 37 37 38 37 35 33 32 33 33 32 33 34 35 36 31 24 23 26 25 22 23 24 24 25 25 23 22 24 24 23 22 22 22 23 23 22 21 22 22 22 20 18 16 16 16 17 17 17 19 21 21 19 19 21 24 25 28 34 36 35 34 28 21 18 17 14 11 10 20 30 33 34 34 35 36 37 37 39 40 43 46
35 35 34 34 35 36 36 33 31 31 33 35 35 34 34 34 33 32 27 23 25 27 25 25 26 26 26 27 26 24 23 23 23 23 23 23 22 23 23 23 22 21 22 21 19 17 16 16 16 15 16 16 18 20 20 19 19 20 22 23 25 30 34 34 35 34 28 20 14 14 16 11 7 18 29 32 30 30 32 33 34 38 39 39 41
32 31 31 32 33 33 32 31 32 35 36 36 35 34 33 33 33 31 28 27 29 29 27 27 27 27 28 29 28 25 24 24 24 24 24 23 22 22 23 23 21 20 20 20 18 17 17 17 15 14 14 15 16 18 18 17 17 17 19 20 22 25 30 33 34 36 36 28 16 8 10 15 13 4 17 26 25 23 26 28 30 34 36 37 38
31 30 30 32 33 33 33 34 34 34 34 33 34 35 35 34 34 34 31 29 30 30 28 28 27 27 29 31 30 26 25 25 24 23 24 24 23 22 22 21 19 18 18 18 18 17 16 16 16 15 15 15 15 16 16 15 15 15 16 18 20 21 25 30 33 34 36 36 27 14 8 11 18 18 12 15 22 22 19 21 26 30 31 34 37
31 31 31 31 32 32 33 33 32 31 33 36 38 40 38 35 35 34 32 30 30 31 30 29 29 29 30 32 30 27 26 25 24 23 23 23 22 21 19 18 17 16 15 16 16 15 15 17 17 17 16 16 16 16 15 14 14 15 15 16 17 19 21 25 29 31 32 34 35 28 18 11 12 17 21 17 18 24 22 21 24 27 29 30 33
30 31 31 33 34 34 35 36 35 34 36 39 41 40 37 35 34 32 30 30 31 31 31 31 30 30 31 31 30 27 26 25 23 22 23 22 20 18 17 16 16 15 15 14 14 14 16 18 18 17 16 16 16 16 15 14 13 13 14 14 15 16 18 20 24 28 29 30 32 33 30 24 17 13 14 18 19 17 20 24 23 25 28 28 28
31 31 32 33 35 36 37 38 38 37 37 37 37 37 36 35 32 29 29 30 31 31 32 32 31 30 30 29 28 26 25 24 22 22 22 21 18 16 16 16 16 15 14 14 14 15 16 17 17 17 16 16 16 16 15 14 13 12 13 13 13 15 16 17 19 21 24 27 29 30 31 32 30 22 14 12 17 18 15 17 17 17 20 23 26
31 31 31 32 32 33 35 37 36 35 34 32 32 33 35 36 34 30 29 30 31 32 32 31 31 30 29 27 25 24 23 22 21 21 21 19 17 16 16 18 18 17 15 15 15 16 16 17 17 17 17 17 17 16 15 14 13 12 12 12 12 13 14 15 16 16 18 21 24 26 28 30 31 31 26 19 15 15 15 16 16 14 14 14 15
29 29 30 30 30 30 32 33 33 33 32 32 32 33 34 35 34 31 28 28 30 30 31 32 33 32 29 25 24 23 22 21 21 20 19 17 16 16 17 20 21 19 17 17 17 17 17 17 17 17 17 17 17 17 16 15 14 13 13 12 12 12 12 13 14 14 15 16 18 20 23 26 27 28 30 29 24 19 17 16 14 13 12 13 14
28 28 29 30 30 29 29 30 31 32 32 32 33 33 33 33 32 29 27 26 24 23 23 26 27 26 23 20 19 19 20 20 19 19 18 17 17 17 18 20 22 21 20 19 19 18 18 17 17 17 17 17 17 17 17 16 15 14 13 13 13 12 11 11 11 12 12 14 15 16 17 20 22 22 24 27 26 24 23 21 19 17 14 11 11
27 27 28 29 30 30 30 30 31 30 30 30 30 31 32 31 30 27 24 22 19 17 17 18 18 19 18 17 16 17 18 18 18 18 18 18 19 19 19 20 21 21 21 21 21 20 19 19 19 18 18 17 16 17 17 17 17 16 15 15 14 13 12 11 10 9 10 10 12 13 14 15 16 17 18 20 21 21 22 23 23 22 20 18 16
27 27 28 29 30 30 31 31 29 27 27 28 28 29 29 28 26 24 22 19 17 17 18 18 18 19 19 17 16 16 17 18 19 19 18 18 19 20 20 20 20 21 22 23 22 22 22 21 21 20 19 19 18 17 17 17 17 18 17 16 15 15 14 13 11 10 9 8 8 9 10 11 12 13 13 15 15 16 18 20 20 20 20 20 20
27 28 27 28 29 30 30 30 28 27 27 27 27 27 25 24 23 22 20 18 17 19 20 18 16 16 15 14 14 15 17 19 19 19 18 18 19 20 21 21 21 22 22 22 23 23 23 22 22 21 20 20 19 19 18 17 17 18 18 18 17 16 16 15 13 12 11 9 8 7 7 7 8 9 10 10 11 11 12 13 14 16 17 19 19
27 28 27 26 25 26 28 29 30 29 27 24 23 23 24 23 22 21 20 19 19 20 19 15 12 12 13 13 14 16 18 20 19 19 19 20 20 21 22 22 23 23 23 22 22 22 22 22 22 21 21 21 20 20 20 19 18 18 18 18 18 18 17 17 15 14 13 12 11 9 8 7 6 6 6 7 8 8 8 8 9 11 13 14 14
25 26 26 24 23 24 25 26 26 26 24 21 21 22 23 22 20 20 20 19 17 16 14 12 11 11 12 13 15 16 18 20 21 21 21 22 22 22 22 23 23 23 22 21 19 19 20 21 21 21 21 21 20 19 20 20 20 20 19 19 19 19 19 18 17 16 15 14 13 12 11 9 8 6 5 4 5 6 6 5 6 7 8 8 8
23 24 24 22 21 22 22 22 22 22 22 20 20 20 20 19 18 17 17 16 15 15 15 13 12 12 14 15 16 17 20 22 23 23 23 24 24 23 22 22 22 21 21 19 18 17 18 19 20 21 21 21 20 20 20 20 20 20 20 19 19 19 19 19 18 18 17 16 15 14 13 12 11 9 7 6 5 5 5 5 4 4 5 5 4
21 21 20 19 18 17 18 19 20 20 20 19 18 17 17 17 16 16 16 16 16 17 19 18 15 13 15 17 19 20 21 23 23 24 24 24 23 22 20 20 19 19 19 19 18 18 17 18 18 19 20 20 20 21 21 21 20 20 19 19 19 18 19 19 19 18 18 17 17 16 15 14 13 12 11 9 7 6 6 6 6 5 5 5 4
17 17 17 17 16 16 17 17 17 17 17 16 16 17 17 17 17 17 17 18 18 18 20 20 19 17 17 18 20 21 22 22 23 23 22 21 20 19 18 18 17 17 17 17 17 17 17 17 16 17 18 18 19 20 20 21 20 20 19 19 18 17 17 17 18 18 18 18 17 17 17 16 15 14 13 12 10 9 9 9 8 7 6 6 6
15 15 15 15 15 15 16 16 16 15 16 16 16 17 17 18 18 17 18 19 18 18 19 21 21 21 20 20 20 21 21 20 20 19 18 18 17 17 16 16 15 15 15 15 14 14 14 14 14 14 14 15 16 16 17 18 18 18 18 17 17 16 16 16 16 16 17 18 18 17 17 17 16 15 15 14 13 11 10 10 9 9 9 8 8
14 14 14 15 15 16 17 18 18 17 17 17 17 17 17 18 18 18 19 20 20 20 20 21 22 23 22 21 20 19 18 16 16 16 15 15 15 14 14 13 12 12 11 11 10 10 9 9 10 10 10 10 11 11 11 13 14 14 14 14 14 14 14 14 14 14 14 15 16 17 17 17 16 16 16 16 15 14 13 12 12 12 12 11 11
13 13 14 16 17 18 19 20 19 18 18 19 19 19 19 20 19 19 20 20 20 21 22 22 22 22 22 20 18 16 14 14 14 13 13 13 12 11 10 10 9 8 8 7 6 6 5 5 6 6 6 6 7 7 7 8 9 10 11 11 11 12 12 11 11 11 11 11 12 13 14 15 15 16 17 17 16 16 16 16 15 15 15 14 12
14 15 16 17 18 19 20 21 21 21 21 22 23 22 22 21 21 21 21 21 21 22 23 23 22 21 19 17 14 13 12 12 12 11 10 10 9 8 8 7 7 6 6 5 5 5 5 5 5 5 6 6 6 6 7 7 8 8 9 9 10 10 11 11 11 10 10 10 10 10 10 11 12 13 14 16 17 18 18 18 17 17 16 16 14
16 17 18 19 20 21 22 23 23 24 24 25 25 25 24 23 22 22 22 22 22 22 22 21 20 18 16 14 12 11 11 10 10 9 9 8 8 7 7 7 7 7 6 6 6 6 6 7 7 7 7 7 7 8 8 8 8 9 9 9 9 9 10 10 11 11 11 10 10 9 9 10 10 10 11 12 14 15 16 17 17 17 16 16 15
18 19 19 20 21 21 23 23 24 24 25 26 26 26 25 24 22 22 22 22 21 21 20 19 17 15 13 12 11 11 10 9 9 8 8 8 8 8 8 8 8 7 7 7 7 7 7 7 8 8 8 9 9 9 9 9 9 10 10 10 10 10 10 10 10 11 11 11 11 10 10 10 10 10 10 10 10 11 12 13 14 14 14 14 13
19 20 21 22 22 22 24 25 24 25 26 27 26 25 25 23 22 21 22 21 20 20 18 16 14 13 12 11 11 10 9 9 9 9 9 9 9 9 8 8 8 8 7 7 8 8 8 9 9 10 10 11 11 11 11 11 12 12 11 11 12 12 11 11 11 11 11 11 12 12 12 11 11 10 10 10 10 10 10 10 11 11 11 11 11
Wind_Direction
328 331 331 330 327 321 317 314 311 310 310 310 309 308 309 311 313 315 315 315 315 314 313 311 307 303 299 295 295 296 298 301 303 305 306 305 305 305 304 302 300 298 300 305 308 308 310 310 309 308 304 299 296 291 284 277 273 268 264 263 261 259 261 259 255 253 253 253 251 248 248 248 249 252 254 253 251 251 251 250 250 250 251 252 252
320 326 327 327 326 320 316 311 308 308 308 309 308 309 311 313 314 316 315 313 313 313 311 309 306 303 300 296 295 295 296 299 301 302 302 302 305 306 305 305 303 301 300 303 305 307 309 310 311 311 308 304 302 299 291 281 275 270 264 262 262 259 258 258 257 255 253 253 251 249 248 248 248 250 252 253 253 253 252 250 248 249 250 250 252
317 324 325 325 323 319 314 309 306 307 308 308 309 312 315 317 317 318 318 314 312 311 310 308 305 302 301 299 297 296 297 299 300 301 300 300 302 303 304 305 305 303 302 303 304 306 308 309 312 313 310 307 306 302 295 285 276 270 265 261 260 259 256 255 257 256 254 253 251 249 248 248 248 250 252 253 253 252 252 250 249 249 249 250 250
316 321 323 322 321 317 311 306 305 306 308 309 311 315 318 318 315 316 316 313 311 310 309 308 305 303 302 301 299 297 297 298 299 300 300 299 300 301 302 303 304 305 305 304 303 304 307 310 313 313 311 310 309 305 296 285 274 267 265 261 258 257 255 252 253 255 255 254 251 248 247 248 248 249 250 252 252 251 251 250 249 248 248 248 249
312 317 319 320 319 314 308 304 304 305 308 311 313 316 318 316 313 311 311 311 312 311 308 306 304 302 301 300 298 295 294 295 297 297 297 296 297 300 302 302 303 306 307 306 305 305 307 311 314 315 313 313 312 307 298 287 275 263 259 258 255 254 254 251 251 254 254 253 251 247 245 246 247 248 249 250 250 249 250 250 248 246 245 245 246
309 314 317 317 316 311 305 303 304 306 308 311 313 316 317 317 315 313 313 314 313 311 309 306 303 300 299 298 298 296 296 297 297 297 297 296 298 302 303 301 302 305 306 305 305 306 309 312 316 317 316 315 313 306 300 292 280 266 258 256 253 252 254 252 249 251 252 250 248 245 243 243 245 246 247 247 247 247 248 249 248 246 245 245 245
306 311 314 313 311 307 304 303 304 307 309 312 314 317 318 317 315 314 314 314 312 311 309 306 302 299 297 297 298 298 298 299 299 300 300 300 302 304 303 302 302 303 304 303 304 306 309 314 319 320 317 315 312 305 301 299 287 271 261 256 251 249 252 253 250 251 251 249 246 242 242 242 242 244 245 245 244 243 244 247 248 248 246 244 244
304 309 310 309 306 304 304 304 306 307 309 312 315 317 317 315 313 312 313 314 313 311 308 304 302 299 297 297 297 297 298 298 300 302 303 303 304 305 304 303 302 302 301 301 303 306 310 315 321 322 320 318 313 302 302 308 298 281 268 258 250 246 249 251 251 252 250 246 244 241 239 239 239 242 244 244 242 239 241 246 248 248 246 244 242
303 307 308 305 304 305 305 305 307 308 310 314 317 317 316 314 313 312 313 315 314 310 307 305 303 301 299 298 297 297 296 297 300 302 302 303 304 303 303 303 303 301 299 300 302 304 308 315 321 324 324 324 318 301 298 314 314 293 276 263 251 245 247 247 248 252 250 244 242 240 238 238 238 239 242 243 242 241 242 244 246 247 247 244 241
304 305 304 304 305 307 307 308 309 310 313 316 317 317 315 313 312 312 314 315 312 310 309 307 305 304 303 300 297 296 295 297 301 302 301 302 303 303 304 305 305 302 299 299 301 303 306 313 321 328 330 330 326 308 292 305 323 308 279 267 256 248 248 247 247 253 253 246 242 240 239 239 237 238 242 244 245 243 242 242 241 243 246 245 241
302 302 302 305 307 308 309 311 312 314 315 317 317 317 314 311 311 313 315 315 311 309 308 308 307 306 304 301 297 297 298 300 303 302 301 303 304 304 307 309 307 302 298 298 299 301 305 311 321 331 336 335 334 321 293 289 313 323 287 266 260 252 250 249 247 250 253 249 243 241 240 239 237 238 240 243 244 242 240 241 241 240 243 245 244
300 300 302 306 307 308 311 314 315 316 318 319 319 317 315 312 311 313 314 313 312 310 309 309 308 306 303 300 299 299 299 300 301 301 302 303 304 305 309 312 309 303 298 298 299 301 304 311 321 332 338 339 339 333 312 293 300 316 310 281 264 254 250 249 246 246 248 247 242 239 238 238 238 239 238 239 243 242 240 241 242 241 242 245 245
297 298 302 305 307 309 313 315 316 318 320 321 321 318 317 315 313 312 313 312 312 311 309 308 307 305 303 300 299 299 299 300 300 301 302 304 304 306 310 312 310 304 298 297 298 300 304 311 320 330 338 341 340 339 331 312 299 302 310 308 281 258 250 248 246 245 246 245 241 237 236 236 237 239 238 237 240 241 240 240 241 241 241 242 243
296 298 300 303 306 309 313 315 316 318 319 320 322 321 318 316 314 312 312 312 313 312 311 309 308 306 303 300 299 300 300 300 301 301 303 304 305 307 310 310 308 304 301 301 302 304 305 310 317 326 336 341 340 339 340 332 312 300 305 313 296 269 257 251 247 246 246 244 240 237 235 235 236 236 236 236 237 238 238 238 239 240 240 241 242
295 297 298 300 303 306 310 313 314 316 317 318 321 321 318 315 314 314 313 313 314 313 311 309 307 304 302 300 300 300 300 300 300 301 302 304 306 309 310 310 307 305 305 307 308 306 306 309 314 321 331 338 338 338 340 341 330 311 305 308 300 281 268 259 252 247 246 245 240 236 234 233 235 235 234 234 234 234 235 237 240 240 240 240 239
292 294 295 297 300 303 306 307 309 312 315 317 319 320 317 312 312 314 315 314 313 312 310 308 305 302 301 300 298 297 298 299 300 301 301 304 309 311 311 309 305 303 306 309 308 306 306 308 310 315 324 333 337 337 338 341 340 326 309 304 300 289 277 268 258 250 246 245 241 235 231 229 231 233 233 231 230 231 233 235 237 237 238 238 237
289 291 292 294 297 299 301 302 304 308 313 317 317 317 315 311 310 315 317 315 311 309 308 307 304 301 299 296 294 296 299 299 300 303 305 308 311 312 312 311 308 309 313 312 309 308 309 307 308 311 318 327 334 337 337 340 343 336 318 303 300 294 284 274 263 253 247 244 241 236 230 228 227 228 228 229 229 231 233 234 234 235 237 237 236
288 289 290 292 293 294 295 298 300 304 310 314 314 314 313 311 310 314 315 313 310 306 305 307 305 301 297 294 294 299 302 299 297 303 308 309 312 312 311 312 313 316 317 313 310 311 310 308 308 310 315 323 332 335 337 339 343 343 331 310 302 302 297 287 272 258 248 243 242 239 233 229 227 226 226 227 229 231 232 233 233 234 236 237 236
289 288 288 288 288 289 291 293 296 300 305 310 312 311 311 310 311 312 313 313 310 307 306 309 307 302 297 295 296 298 298 296 296 303 307 308 310 311 311 312 314 316 315 314 313 314 313 310 309 309 312 321 329 334 337 338 342 348 345 328 312 311 310 305 290 271 254 244 241 239 236 232 230 230 229 229 229 230 231 230 230 232 236 236 234
289 286 286 285 285 287 288 289 293 296 299 304 307 307 307 309 310 310 311 311 308 305 305 307 306 302 300 300 301 298 294 294 299 302 303 304 307 310 310 311 313 314 314 315 317 317 316 314 312 311 312 319 326 332 338 340 341 348 352 344 328 320 322 323 313 288 266 250 241 238 235 233 232 232 232 232 231 230 230 228 228 231 233 233 232
286 285 285 285 285 287 287 288 290 292 294 299 303 304 305 306 307 307 306 305 303 302 303 305 305 302 300 301 302 301 298 301 306 304 299 300 305 309 311 311 311 313 314 316 319 320 319 317 315 313 313 317 324 331 337 340 341 346 353 352 344 332 328 334 335 314 282 261 246 238 234 234 233 233 233 234 233 232 231 229 229 230 232 231 231
281 283 285 285 286 288 290 290 290 290 292 295 299 301 301 302 302 302 300 298 299 300 301 303 304 302 300 301 303 304 304 305 308 305 300 301 305 310 313 311 310 312 313 317 321 322 320 320 318 316 316 317 322 331 337 340 342 345 351 355 352 342 327 331 346 346 310 272 253 240 234 234 234 234 234 235 234 234 233 231 230 231 231 230 230
278 281 283 285 287 289 291 290 290 291 291 292 297 299 299 299 299 299 297 294 295 296 298 301 303 301 300 302 304 307 309 309 312 312 306 304 306 310 314 313 310 310 312 316 322 324 321 320 319 319 321 321 321 327 335 340 343 346 351 358 0 359 347 334 344 1 348 281 255 244 236 234 234 234 234 235 235 235 234 233 233 232 232 231 231
279 280 282 284 284 285 287 289 291 290 287 288 293 295 296 296 297 299 298 292 290 295 297 299 301 300 300 303 305 308 310 308 310 313 310 307 309 312 315 314 311 309 311 315 322 325 322 321 322 322 324 325 323 323 329 335 340 343 350 357 2 4 3 352 343 358 9 304 252 243 238 236 235 235 235 234 235 236 235 235 235 234 233 232 232
279 280 281 281 280 281 284 287 288 286 284 285 288 290 293 293 295 298 296 288 291 298 295 294 298 298 300 304 306 308 309 305 306 313 313 311 313 313 314 314 311 309 310 313 319 325 324 321 321 321 325 328 327 323 324 330 337 344 351 358 2 2 4 4 356 354 9 11 266 241 237 236 236 237 236 233 233 235 235 234 234 234 233 231 230
278 279 281 282 282 283 282 283 284 282 281 283 285 289 292 293 296 299 294 286 295 303 297 295 300 301 302 306 306 307 307 305 308 316 317 312 313 313 313 314 313 310 309 309 313 319 321 319 319 321 326 332 330 327 330 340 346 350 354 0 3 0 1 8 10 2 4 18 15 276 247 243 237 234 234 231 230 231 232 231 232 232 230 228 227
278 280 281 283 284 283 280 281 283 282 282 285 288 291 293 294 297 299 291 284 299 306 301 300 303 302 302 304 304 304 305 303 306 312 312 310 311 311 311 313 313 310 307 306 308 313 317 317 317 319 324 331 332 330 340 353 357 353 354 359 3 0 359 7 17 16 8 9 18 22 3 297 251 237 232 229 227 228 229 231 231 230 228 226 225
279 280 281 280 280 279 278 279 280 279 281 285 287 289 293 294 296 297 293 295 306 308 301 296 298 300 301 299 299 300 299 298 302 305 306 307 307 306 306 308 310 309 307 305 305 307 311 312 314 317 323 328 330 330 338 349 351 349 352 356 0 360 357 2 15 22 17 7 5 21 29 15 284 238 227 224 223 225 229 232 231 229 228 226 226
282 281 281 280 279 280 281 280 279 279 281 282 283 287 292 294 295 298 300 302 304 302 297 293 294 296 296 294 295 298 296 295 298 301 303 306 306 303 302 302 304 306 306 306 305 304 306 309 312 315 318 319 322 326 332 341 344 346 351 354 357 359 356 357 8 18 19 16 8 8 38 42 42 105 201 214 220 223 227 230 230 231 230 228 227
283 282 283 283 283 283 282 279 280 284 285 286 288 291 292 294 296 298 299 298 297 297 295 291 289 290 289 289 292 293 291 291 294 297 301 305 305 303 301 300 302 304 305 307 308 307 307 309 309 310 311 312 318 325 330 336 341 344 348 352 356 359 356 356 4 11 14 17 18 14 15 27 34 52 97 177 201 206 211 218 223 230 231 226 226
281 281 281 281 280 278 277 279 285 289 289 290 292 291 292 295 297 295 292 292 294 294 292 289 286 286 286 287 287 286 287 289 291 295 300 303 303 302 301 299 302 305 305 308 311 309 307 309 309 308 309 311 317 323 328 334 339 341 346 351 356 1 358 356 3 8 8 11 17 20 22 18 11 27 52 89 152 182 198 208 214 221 225 222 223
281 281 280 279 278 277 279 283 287 287 286 287 289 289 290 292 291 288 288 290 291 289 288 287 285 283 285 286 284 282 282 285 287 293 299 301 300 299 297 297 301 304 305 308 311 310 308 310 313 313 311 311 314 318 324 332 335 336 342 347 354 2 3 359 4 7 4 5 12 18 24 29 23 10 29 59 87 131 179 198 204 211 215 215 220
282 281 279 279 280 281 282 283 284 284 283 283 285 286 287 287 287 288 290 291 290 287 286 284 282 281 283 283 280 278 279 281 285 291 296 296 295 293 292 296 301 303 304 306 307 308 309 311 313 316 315 313 312 313 317 325 331 333 338 344 350 359 6 7 7 7 3 4 9 13 19 26 26 23 25 45 58 73 112 152 169 183 193 199 208
283 281 280 279 280 281 283 284 284 284 283 282 282 285 287 289 291 291 289 289 291 289 285 280 277 276 277 276 273 274 276 278 283 288 291 290 289 288 289 294 298 301 304 306 306 306 307 308 308 311 314 313 311 310 311 315 322 327 332 339 347 355 4 9 9 8 5 4 5 8 13 18 18 20 25 31 32 42 65 90 107 118 128 139 160
283 282 281 280 279 278 279 280 280 281 283 284 286 288 288 290 293 294 291 289 288 286 280 274 272 271 270 267 266 268 272 276 280 284 286 286 285 286 289 293 296 300 305 307 306 305 304 304 304 305 307 308 307 307 306 306 310 317 323 328 336 346 356 2 5 7 9 7 4 3 7 10 10 11 17 21 23 30 43 57 70 80 86 88 96
284 283 282 281 279 278 277 277 278 281 284 286 288 288 288 290 295 298 297 293 289 284 279 274 270 266 263 260 261 265 270 274 277 279 282 283 283 283 286 289 293 298 302 304 306 305 302 302 302 300 300 301 302 303 302 301 302 306 312 317 321 327 338 348 355 1 7 10 9 7 5 5 6 7 9 12 17 28 40 46 52 57 59 59 73
284 283 280 279 280 280 280 280 280 280 281 282 283 284 288 291 294 296 294 292 288 284 280 275 270 266 265 264 265 267 271 274 277 277 279 282 282 283 285 288 292 296 299 301 303 302 300 299 299 298 297 297 297 298 298 300 300 300 302 307 310 314 320 325 333 348 1 5 8 10 10 8 7 8 9 10 13 22 31 36 41 45 45 41 42
285 282 279 278 279 281 282 283 281 279 279 280 281 283 287 290 291 291 289 284 279 275 273 271 269 270 272 270 267 269 273 275 277 279 280 281 283 285 288 290 291 293 296 298 299 299 298 297 296 296 296 295 294 294 294 295 298 299 300 301 303 305 309 312 313 322 337 347 352 358 4 10 13 12 12 13 13 13 18 24 30 33 31 26 26
285 284 282 280 280 280 281 282 283 283 281 280 281 284 286 287 287 287 283 276 272 270 268 267 270 277 281 279 275 276 278 279 281 284 287 287 287 289 291 292 292 292 293 295 296 296 296 295 294 294 294 293 292 292 293 293 294 295 297 300 301 300 300 302 304 306 310 317 325 332 340 353 4 10 13 15 15 10 10 18 27 31 29 24 19
284 284 284 284 284 281 279 281 284 285 283 280 280 283 285 284 282 280 274 271 272 274 272 273 281 288 287 284 283 283 284 287 291 294 294 294 294 293 293 294 294 292 291 292 293 293 292 292 292 292 292 291 291 291 293 293 293 293 293 294 296 298 297 296 299 300 300 300 302 306 313 319 327 344 360 8 11 9 6 10 19 27 31 30 25
284 285 286 286 285 283 281 282 285 285 284 283 283 284 285 282 277 272 270 269 273 276 279 286 294 290 283 284 287 289 291 294 297 298 297 296 295 294 294 293 292 291 291 291 290 289 288 288 290 291 292 293 293 292 292 293 293 293 293 292 291 293 295 295 295 294 294 294 293 293 296 299 300 306 318 331 341 349 352 356 5 13 18 26 31
284 286 288 286 284 284 283 284 285 285 285 285 282 281 282 280 274 272 274 275 275 279 285 292 295 293 291 294 296 295 295 296 297 297 297 296 295 294 293 292 289 289 291 290 288 285 284 285 287 289 291 293 294 294 294 294 294 293 294 293 292 292 293 295 295 294 293 292 291 289 288 288 288 289 289 290 295 305 313 318 322 331 342 351 6
285 286 288 286 284 285 286 288 288 288 288 286 280 277 279 278 275 275 279 280 281 285 292 296 298 297 296 298 298 297 296 296 295 295 294 293 293 293 292 290 289 288 287 287 286 284 282 282 284 286 288 290 293 293 293 293 294 294 292 291 290 290 291 292 294 295 295 294 292 290 287 285 282 280 279 280 279 278 281 287 288 287 290 297 304
286 285 284 284 285 287 289 290 291 290 290 288 285 281 279 277 276 278 282 283 285 290 294 296 297 296 295 296 296 294 294 293 292 292 291 291 291 291 289 288 288 286 284 284 283 283 282 282 281 282 284 285 287 290 291 292 292 293 293 292 290 290 290 290 290 291 293 294 293 291 288 285 282 280 277 275 275 276 276 279 280 277 271 267 267
284 284 283 283 285 287 289 291 294 293 291 289 286 283 281 279 280 283 285 286 289 290 290 292 294 296 296 296 295 292 292 290 288 288 289 289 289 289 288 286 285 284 283 283 281 279 280 281 281 281 282 283 285 287 290 293 294 295 296 298 297 296 295 294 292 291 291 292 293 292 288 284 281 280 277 276 278 281 281 280 281 282 279 271 263
283 283 282 283 285 286 287 289 291 290 286 283 282 283 285 285 286 287 287 288 289 290 289 290 293 295 296 297 296 292 290 287 286 286 287 287 286 286 285 283 282 280 280 280 279 279 282 284 285 286 286 288 292 295 296 297 300 303 305 307 307 307 306 304 301 299 297 296 294 293 290 286 283 280 278 277 279 282 284 283 283 286 288 285 275
285 283 282 283 286 287 287 288 288 286 284 282 282 283 286 288 288 287 287 286 287 288 289 290 292 292 293 294 293 289 286 285 285 284 283 282 282 282 280 278 277 277 277 278 281 286 289 291 293 295 298 300 302 306 308 308 309 312 315 318 320 320 321 321 319 316 313 309 304 300 295 292 289 286 283 279 277 278 280 281 281 283 286 288 284
285 281 281 282 284 286 286 287 288 288 286 284 283 283 284 285 286 285 284 283 284 285 287 289 290 290 291 290 288 286 285 284 282 280 278 276 275 274 274 275 277 279 282 286 289 292 296 300 299 300 302 305 305 304 306 309 310 311 314 317 320 321 324 327 328 328 328 326 323 318 311 305 299 294 290 286 283 282 282 281 281 281 283 284 283
285 283 283 284 284 285 285 287 289 290 288 285 285 284 283 283 283 282 282 283 283 284 284 286 287 287 286 285 283 282 281 279 276 273 273 273 273 274 275 277 278 279 281 285 289 292 296 300 303 304 303 303 305 306 305 305 305 306 306 307 307 308 311 313 315 318 321 323 325 326 324 320 316 311 304 298 293 291 289 288 287 286 284 283 282
291 293 294 294 291 291 291 291 291 291 289 287 286 285 284 283 282 281 280 281 281 281 282 283 282 279 275 275 276 276 274 270 267 266 267 268 271 274 276 277 280 284 286 289 293 297 301 303 306 310 310 310 311 312 312 312 311 309 308 308 307 305 303 301 302 304 305 308 310 312 313 313 313 313 312 310 307 304 303 301 299 297 295 291 287
288 292 292 290 289 289 290 291 291 289 288 287 285 283 282 282 280 279 278 278 278 278 279 277 272 268 267 267 267 265 261 257 256 258 261 264 268 271 274 278 281 286 290 295 298 303 308 311 312 313 314 316 317 317 317 317 317 316 315 313 312 310 309 307 304 300 299 298 299 300 300 300 300 300 301 302 303 304 306 307 308 309 309 307 303
Height
3183 3182 3180 3179 3177 3175 3173 3172 3170 3168 3167 3165 3164 3163 3161 3160 3159 3157 3156 3154 3153 3152 3151 3149 3148 3147 3146 3144 3143 3142 3140 3139 3137 3135 3134 3132 3131 3129 3128 3127 3125 3124 3122 3120 3119 3117 3115 3114 3113 3112 3110 3107 3106 3105 3104 3102 3101 3101 3102 3102 3102 3103 3104 3104 3103 3103 3105 3108 3110 3112 3113 3114 3114 3115 3116 3117 3119 3121 3122 3124 3125 3125 3127 3129 3130
3182 3180 3178 3176 3175 3173 3171 3169 3168 3166 3165 3164 3162 3161 3159 3158 3156 3155 3154 3152 3151 3150 3149 3147 3146 3145 3144 3142 3141 3140 3138 3137 3135 3134 3132 3130 3129 3127 3125 3124 3123 3121 3120 3118 3116 3114 3112 3111 3109 3108 3106 3104 3102 3100 3099 3097 3095 3094 3096 3096 3096 3097 3098 3097 3097 3098 3099 3102 3105 3107 3108 3109 3109 3111 3112 3113 3115 3116 3117 3119 3121 3121 3122 3124 3126
3178 3178 3176 3174 3172 3171 3169 3167 3166 3164 3163 3161 3160 3158 3156 3155 3153 3152 3152 3150 3149 3148 3146 3145 3144 3142 3141 3140 3139 3138 3136 3135 3133 3131 3130 3128 3127 3125 3123 3121 3120 3118 3117 3115 3113 3112 3110 3108 3106 3104 3101 3099 3097 3094 3092 3091 3089 3088 3089 3090 3089 3090 3091 3091 3092 3093 3094 3096 3098 3101 3103 3103 3104 3106 3108 3109 3110 3111 3112 3114 3116 3117 3118 3119 3121
3174 3174 3174 3172 3170 3168 3166 3165 3163 3162 3161 3159 3158 3156 3154 3153 3151 3150 3149 3148 3147 3145 3144 3143 3141 3140 3139 3137 3136 3135 3134 3132 3130 3129 3127 3126 3124 3123 3121 3119 3117 3116 3114 3112 3110 3108 3106 3105 3102 3100 3096 3093 3091 3088 3085 3084 3083 3082 3082 3083 3083 3083 3085 3085 3086 3088 3089 3090 3092 3095 3097 3098 3099 3101 3103 3104 3105 3106 3107 3109 3111 3113 3114 3115 3116
3173 3171 3170 3169 3168 3166 3164 3163 3161 3160 3159 3157 3156 3154 3153 3151 3150 3148 3147 3146 3145 3143 3142 3141 3139 3138 3137 3135 3134 3132 3131 3129 3128 3126 3125 3123 3122 3121 3119 3116 3115 3113 3111 3109 3107 3105 3103 3101 3099 3096 3091 3087 3084 3082 3079 3077 3075 3075 3075 3076 3077 3077 3078 3080 3080 3081 3082 3083 3086 3089 3091 3092 3093 3095 3097 3098 3100 3101 3102 3103 3106 3108 3109 3110 3112
3172 3170 3168 3167 3165 3164 3162 3161 3160 3158 3157 3156 3154 3153 3151 3150 3148 3146 3145 3144 3142 3141 3140 3138 3137 3136 3134 3133 3131 3130 3128 3125 3124 3123 3122 3120 3119 3118 3116 3114 3112 3110 3108 3106 3105 3103 3101 3098 3096 3092 3087 3082 3079 3076 3074 3071 3069 3068 3068 3069 3070 3071 3072 3073 3075 3076 3077 3078 3080 3082 3084 3086 3087 3089 3091 3093 3094 3095 3097 3098 3100 3103 3105 3106 3107
3170 3168 3167 3165 3163 3161 3160 3159 3158 3157 3155 3153 3152 3151 3149 3148 3146 3145 3143 3142 3140 3139 3138 3136 3135 3133 3132 3130 3128 3127 3125 3122 3121 3120 3119 3117 3116 3114 3113 3111 3109 3108 3106 3104 3102 3100 3098 3096 3093 3089 3084 3079 3074 3072 3069 3066 3063 3062 3062 3062 3064 3065 3066 3067 3069 3070 3071 3072 3074 3075 3077 3080 3082 3084 3086 3087 3087 3089 3091 3093 3095 3098 3100 3101 3102
3168 3166 3165 3163 3161 3160 3158 3157 3156 3155 3153 3151 3150 3149 3147 3146 3145 3143 3141 3139 3138 3137 3135 3134 3132 3131 3129 3128 3126 3124 3122 3120 3119 3117 3116 3114 3113 3111 3109 3108 3106 3105 3103 3101 3100 3098 3095 3093 3090 3086 3081 3075 3071 3068 3066 3063 3059 3057 3057 3057 3058 3058 3060 3062 3064 3064 3065 3066 3068 3069 3072 3074 3076 3078 3080 3081 3081 3083 3086 3089 3090 3092 3094 3096 3098
3165 3164 3162 3161 3159 3158 3156 3155 3154 3153 3151 3149 3148 3147 3145 3144 3142 3141 3139 3137 3135 3134 3132 3131 3129 3128 3127 3125 3124 3122 3120 3117 3116 3115 3113 3111 3110 3108 3107 3105 3103 3102 3100 3098 3097 3095 3092 3090 3087 3083 3078 3072 3068 3065 3063 3060 3056 3054 3053 3053 3053 3053 3055 3058 3059 3059 3060 3060 3062 3065 3067 3068 3070 3072 3074 3075 3077 3080 3083 3085 3086 3088 3090 3091 3093
3162 3161 3160 3158 3157 3155 3154 3153 3152 3151 3149 3147 3146 3145 3143 3142 3140 3138 3137 3135 3133 3132 3130 3128 3127 3125 3124 3123 3121 3119 3116 3114 3113 3112 3111 3109 3108 3106 3104 3102 3100 3098 3097 3095 3094 3092 3089 3087 3084 3080 3075 3069 3064 3061 3059 3057 3054 3050 3049 3049 3049 3049 3051 3052 3054 3055 3055 3055 3057 3060 3061 3063 3066 3068 3069 3071 3074 3076 3079 3080 3082 3084 3085 3086 3088
3160 3158 3157 3155 3154 3153 3152 3151 3150 3149 3147 3145 3144 3142 3141 3140 3138 3136 3134 3133 3131 3129 3128 3126 3124 3123 3122 3120 3118 3117 3114 3112 3110 3109 3108 3107 3105 3103 3101 3099 3097 3095 3093 3092 3091 3089 3086 3084 3081 3076 3071 3067 3062 3057 3055 3053 3051 3047 3045 3045 3045 3045 3046 3047 3048 3049 3050 3051 3053 3055 3056 3057 3061 3063 3065 3067 3069 3071 3073 3075 3078 3079 3080 3081 3084
3157 3155 3154 3153 3152 3151 3150 3149 3148 3146 3145 3143 3142 3140 3139 3137 3135 3134 3132 3131 3129 3127 3125 3124 3122 3121 3119 3117 3115 3114 3112 3110 3109 3107 3105 3104 3102 3100 3098 3096 3094 3092 3090 3089 3087 3085 3083 3081 3077 3073 3069 3064 3060 3055 3051 3049 3047 3044 3042 3041 3041 3041 3041 3042 3043 3044 3045 3046 3048 3050 3051 3053 3056 3058 3060 3063 3065 3067 3069 3071 3073 3074 3076 3077 3080
3154 3153 3152 3150 3149 3149 3148 3147 3145 3144 3143 3141 3140 3138 3137 3135 3133 3131 3130 3129 3127 3125 3123 3121 3120 3118 3117 3115 3113 3112 3110 3108 3106 3105 3103 3101 3099 3097 3095 3093 3091 3089 3088 3087 3085 3082 3080 3077 3074 3071 3066 3062 3058 3053 3049 3046 3044 3042 3040 3038 3036 3036 3037 3038 3038 3039 3040 3041 3042 3043 3046 3049 3051 3053 3056 3059 3061 3062 3064 3066 3068 3070 3072 3074 3076
3151 3150 3149 3148 3147 3147 3145 3144 3143 3142 3140 3139 3138 3136 3134 3133 3131 3129 3128 3126 3125 3123 3121 3119 3118 3116 3114 3113 3111 3109 3108 3106 3104 3103 3101 3099 3096 3094 3093 3091 3088 3087 3085 3084 3082 3079 3076 3074 3071 3068 3065 3060 3056 3051 3047 3043 3040 3038 3037 3035 3033 3033 3033 3034 3034 3035 3036 3036 3037 3038 3041 3044 3046 3049 3052 3055 3056 3057 3059 3062 3064 3066 3068 3071 3074
3149 3148 3147 3146 3145 3144 3143 3142 3140 3139 3138 3137 3135 3134 3132 3130 3129 3127 3126 3124 3122 3120 3119 3117 3115 3114 3112 3110 3108 3107 3105 3104 3102 3100 3098 3096 3094 3092 3090 3088 3086 3084 3082 3080 3078 3076 3074 3071 3068 3066 3063 3059 3055 3050 3045 3041 3038 3035 3033 3032 3030 3030 3029 3029 3030 3030 3031 3031 3032 3033 3036 3039 3041 3044 3047 3049 3050 3053 3055 3057 3059 3062 3064 3066 3069
3146 3145 3144 3143 3142 3142 3141 3139 3138 3137 3136 3134 3133 3131 3130 3128 3127 3125 3123 3121 3120 3118 3116 3115 3113 3112 3110 3108 3106 3104 3103 3101 3100 3098 3096 3094 3092 3090 3088 3086 3084 3081 3078 3077 3075 3073 3071 3069 3066 3064 3061 3058 3054 3050 3044 3039 3036 3032 3030 3028 3027 3026 3026 3025 3024 3025 3025 3025 3025 3027 3030 3033 3036 3039 3041 3043 3044 3047 3051 3053 3055 3057 3059 3061 3063
3144 3143 3142 3141 3140 3139 3138 3137 3135 3134 3133 3131 3130 3129 3127 3126 3124 3122 3120 3119 3117 3116 3114 3113 3111 3109 3108 3106 3104 3102 3100 3099 3098 3096 3094 3092 3090 3088 3086 3084 3081 3078 3075 3074 3073 3071 3069 3066 3064 3061 3059 3056 3053 3048 3043 3038 3034 3030 3027 3025 3024 3023 3022 3020 3019 3018 3018 3019 3020 3022 3024 3027 3029 3032 3035 3037 3039 3042 3045 3047 3050 3053 3054 3056 3059
3141 3140 3139 3138 3137 3136 3135 3134 3133 3131 3130 3129 3127 3126 3125 3123 3121 3119 3118 3116 3115 3113 3112 3110 3109 3107 3105 3103 3101 3100 3098 3097 3096 3094 3092 3090 3088 3086 3084 3082 3080 3077 3075 3073 3071 3069 3067 3064 3062 3059 3057 3054 3051 3047 3043 3038 3033 3029 3025 3022 3021 3020 3018 3015 3013 3012 3012 3013 3015 3017 3020 3022 3024 3026 3028 3031 3034 3036 3038 3040 3045 3048 3049 3052 3055
3138 3137 3136 3135 3133 3132 3132 3131 3130 3128 3127 3126 3125 3123 3122 3120 3119 3117 3115 3113 3111 3110 3109 3108 3106 3104 3102 3101 3100 3098 3096 3096 3095 3093 3090 3088 3086 3084 3082 3079 3078 3076 3074 3072 3070 3068 3065 3063 3060 3057 3055 3052 3050 3046 3042 3037 3033 3028 3023 3020 3018 3016 3014 3012 3009 3007 3007 3008 3011 3013 3015 3018 3020 3021 3023 3026 3028 3030 3032 3036 3040 3042 3043 3047 3051
3134 3133 3133 3132 3130 3129 3129 3127 3127 3126 3124 3123 3122 3120 3119 3117 3116 3114 3113 3111 3109 3107 3106 3105 3104 3102 3099 3098 3097 3096 3094 3092 3091 3089 3087 3085 3083 3082 3080 3077 3076 3074 3072 3070 3068 3066 3064 3061 3058 3056 3053 3051 3048 3045 3041 3037 3033 3028 3023 3019 3016 3013 3011 3009 3006 3003 3003 3004 3005 3008 3010 3013 3015 3016 3018 3021 3023 3024 3027 3031 3035 3037 3039 3043 3046
3130 3129 3129 3128 3127 3125 3125 3124 3123 3122 3121 3120 3119 3117 3116 3114 3113 3111 3110 3108 3107 3105 3104 3102 3101 3099 3097 3095 3094 3092 3090 3088 3086 3086 3085 3083 3081 3080 3078 3076 3074 3072 3070 3069 3066 3064 3062 3059 3057 3054 3051 3049 3047 3044 3041 3037 3032 3028 3024 3019 3015 3011 3009 3007 3004 3001 2999 2999 3000 3002 3005 3008 3010 3012 3013 3015 3018 3020 3023 3027 3030 3033 3035 3038 3041
3127 3125 3125 3125 3123 3122 3121 3120 3119 3118 3117 3116 3115 3114 3112 3111 3109 3108 3107 3105 3103 3102 3101 3099 3098 3096 3094 3092 3091 3089 3087 3085 3085 3084 3082 3080 3079 3078 3076 3074 3072 3070 3068 3067 3065 3063 3060 3058 3055 3053 3050 3048 3046 3043 3040 3036 3032 3028 3024 3019 3015 3011 3009 3006 3003 2999 2997 2996 2996 2998 3001 3003 3006 3007 3009 3011 3013 3016 3019 3022 3025 3028 3031 3035 3037
3124 3122 3122 3121 3120 3119 3118 3116 3115 3114 3113 3112 3111 3109 3108 3107 3105 3104 3103 3102 3100 3099 3097 3096 3094 3093 3091 3090 3089 3087 3085 3084 3084 3082 3080 3078 3077 3076 3074 3072 3070 3068 3066 3065 3063 3061 3059 3056 3054 3051 3049 3047 3044 3042 3039 3036 3032 3028 3024 3020 3016 3011 3008 3005 3002 2998 2994 2993 2993 2994 2996 2998 3000 3002 3004 3007 3009 3012 3014 3017 3021 3024 3027 3030 3033
3120 3119 3118 3118 3117 3115 3114 3112 3111 3110 3109 3108 3107 3105 3104 3103 3101 3100 3098 3097 3096 3094 3093 3092 3091 3089 3088 3087 3086 3085 3083 3083 3082 3081 3078 3076 3075 3073 3072 3070 3068 3066 3064 3063 3061 3059 3057 3055 3053 3050 3048 3045 3043 3040 3037 3034 3031 3028 3024 3020 3016 3012 3008 3004 3000 2997 2993 2990 2990 2991 2992 2993 2995 2996 2999 3002 3005 3007 3010 3013 3016 3019 3023 3026 3029
3117 3116 3114 3113 3113 3111 3110 3108 3107 3106 3105 3103 3102 3101 3100 3098 3097 3096 3094 3092 3090 3089 3089 3088 3087 3086 3085 3084 3082 3082 3081 3079 3079 3078 3077 3074 3072 3071 3070 3068 3066 3064 3062 3061 3059 3058 3056 3054 3051 3049 3047 3044 3042 3039 3036 3034 3031 3028 3024 3020 3017 3013 3008 3003 2999 2996 2992 2989 2988 2988 2988 2988 2989 2991 2993 2996 3000 3002 3004 3007 3010 3013 3017 3020 3023
3112 3111 3110 3109 3108 3107 3105 3104 3103 3101 3101 3100 3098 3096 3095 3094 3093 3092 3091 3088 3086 3086 3085 3084 3084 3083 3082 3081 3079 3079 3079 3076 3074 3075 3074 3072 3070 3069 3067 3066 3065 3062 3060 3059 3057 3056 3054 3052 3050 3048 3046 3043 3041 3038 3035 3033 3031 3028 3025 3021 3017 3014 3009 3004 2999 2995 2992 2989 2987 2985 2985 2984 2984 2985 2988 2990 2993 2996 2999 3002 3005 3008 3011 3014 3016
3108 3107 3106 3105 3103 3102 3101 3100 3099 3097 3097 3096 3093 3091 3091 3091 3090 3089 3088 3086 3084 3083 3082 3082 3081 3081 3080 3078 3077 3077 3076 3074 3073 3072 3072 3070 3068 3067 3065 3064 3063 3061 3059 3057 3055 3054 3053 3051 3049 3047 3045 3043 3040 3037 3035 3032 3030 3028 3025 3022 3018 3015 3010 3006 3001 2996 2993 2990 2987 2985 2984 2982 2981 2981 2983 2986 2989 2992 2995 2998 3001 3004 3006 3008 3011
3104 3102 3101 3100 3099 3098 3096 3096 3095 3094 3093 3091 3088 3087 3088 3088 3087 3086 3086 3084 3082 3081 3080 3079 3079 3078 3077 3076 3076 3076 3075 3073 3071 3071 3070 3068 3067 3065 3063 3062 3061 3059 3057 3056 3054 3053 3051 3050 3048 3046 3044 3042 3039 3037 3035 3032 3030 3028 3025 3022 3019 3016 3012 3008 3004 2998 2994 2991 2988 2986 2984 2981 2979 2979 2981 2984 2987 2989 2992 2995 2998 3000 3003 3005 3008
3099 3098 3097 3095 3094 3092 3091 3091 3091 3090 3089 3087 3085 3085 3086 3085 3084 3083 3082 3081 3080 3079 3078 3077 3076 3076 3075 3074 3074 3074 3073 3071 3069 3068 3067 3066 3064 3063 3061 3060 3059 3057 3055 3054 3052 3051 3049 3048 3047 3045 3043 3041 3039 3037 3035 3032 3030 3028 3025 3022 3020 3017 3013 3009 3005 3000 2996 2992 2989 2987 2984 2982 2980 2978 2978 2982 2985 2987 2989 2992 2995 2997 3000 3004 3007
3094 3094 3093 3091 3089 3087 3086 3086 3086 3085 3083 3081 3081 3081 3082 3081 3080 3079 3079 3078 3078 3077 3076 3074 3074 3074 3072 3071 3071 3071 3070 3068 3067 3066 3065 3063 3062 3060 3059 3058 3056 3055 3053 3052 3050 3049 3047 3046 3045 3043 3042 3040 3038 3036 3034 3032 3030 3028 3025 3023 3020 3017 3015 3011 3007 3003 2999 2995 2991 2988 2985 2984 2982 2979 2977 2979 2982 2985 2987 2990 2992 2995 2998 3001 3004
3091 3090 3090 3088 3086 3084 3083 3082 3082 3081 3078 3076 3076 3076 3076 3076 3076 3075 3075 3075 3074 3073 3072 3071 3070 3070 3069 3067 3067 3067 3067 3065 3065 3064 3062 3061 3059 3058 3057 3055 3054 3053 3051 3050 3049 3047 3045 3044 3043 3042 3040 3038 3037 3035 3033 3031 3029 3027 3025 3023 3020 3018 3015 3013 3009 3006 3002 2998 2995 2991 2988 2986 2984 2981 2979 2979 2980 2983 2986 2988 2990 2992 2994 2997 3001
3087 3087 3086 3084 3083 3081 3080 3079 3079 3078 3077 3074 3072 3071 3071 3071 3072 3072 3072 3071 3070 3069 3068 3067 3067 3066 3065 3064 3063 3063 3063 3063 3062 3061 3060 3058 3057 3056 3054 3053 3052 3051 3050 3048 3047 3046 3044 3042 3041 3040 3039 3037 3035 3034 3032 3030 3029 3027 3025 3023 3021 3018 3016 3014 3011 3008 3005 3002 2998 2995 2992 2989 2986 2985 2983 2981 2980 2981 2984 2987 2989 2990 2992 2995 2999
3083 3082 3082 3080 3078 3077 3076 3076 3076 3075 3074 3072 3070 3068 3067 3067 3067 3068 3067 3067 3066 3065 3064 3063 3062 3062 3061 3060 3059 3059 3060 3059 3059 3058 3057 3056 3055 3053 3052 3051 3050 3049 3048 3047 3045 3044 3042 3041 3039 3038 3037 3036 3034 3033 3031 3029 3028 3026 3025 3023 3021 3019 3017 3015 3013 3011 3008 3004 3001 2998 2995 2992 2990 2988 2987 2985 2983 2983 2984 2985 2987 2989 2991 2994 2997
3079 3078 3077 3076 3075 3073 3072 3071 3071 3070 3069 3068 3067 3066 3063 3061 3060 3062 3063 3063 3061 3059 3059 3058 3057 3057 3057 3056 3056 3056 3056 3056 3056 3055 3054 3053 3052 3051 3050 3048 3047 3046 3046 3045 3044 3042 3041 3039 3038 3037 3035 3034 3033 3031 3030 3028 3027 3026 3024 3022 3021 3019 3017 3016 3014 3012 3010 3007 3004 3002 2999 2996 2994 2992 2989 2988 2987 2987 2986 2986 2988 2990 2992 2993 2995
3074 3073 3072 3071 3070 3070 3068 3067 3067 3066 3064 3063 3063 3062 3060 3058 3057 3058 3058 3058 3056 3054 3053 3052 3051 3051 3052 3053 3053 3053 3054 3054 3053 3052 3051 3050 3049 3049 3048 3046 3044 3043 3043 3042 3041 3040 3039 3037 3036 3034 3033 3032 3031 3030 3028 3027 3026 3025 3024 3022 3021 3019 3018 3016 3015 3013 3011 3009 3007 3005 3002 3000 2998 2996 2993 2991 2990 2990 2989 2990 2991 2992 2993 2994 2994
3070 3069 3068 3066 3065 3065 3064 3063 3062 3062 3061 3060 3059 3057 3056 3056 3055 3054 3054 3053 3051 3050 3048 3047 3046 3046 3048 3049 3050 3050 3051 3051 3050 3049 3048 3048 3047 3046 3045 3043 3042 3041 3040 3039 3038 3038 3037 3035 3034 3033 3031 3030 3029 3028 3027 3026 3025 3024 3023 3022 3020 3019 3018 3017 3015 3014 3012 3010 3008 3007 3005 3004 3002 3000 2998 2997 2995 2993 2992 2992 2994 2994 2995 2995 2994
3066 3065 3064 3062 3061 3061 3059 3058 3058 3058 3057 3056 3055 3053 3053 3052 3052 3051 3050 3049 3048 3046 3045 3044 3044 3044 3045 3046 3047 3047 3047 3047 3046 3046 3045 3045 3044 3043 3042 3041 3040 3038 3037 3036 3035 3035 3034 3033 3032 3031 3029 3028 3028 3027 3025 3024 3023 3022 3022 3021 3020 3018 3017 3016 3015 3014 3013 3011 3010 3009 3008 3007 3005 3004 3003 3002 3000 2998 2996 2995 2995 2996 2996 2996 2996
3061 3060 3060 3059 3058 3057 3055 3055 3054 3053 3052 3051 3050 3050 3049 3049 3048 3048 3047 3046 3045 3043 3043 3043 3043 3043 3043 3044 3044 3044 3044 3044 3043 3043 3042 3042 3041 3040 3039 3038 3038 3036 3035 3034 3032 3031 3030 3030 3029 3028 3027 3026 3025 3025 3024 3023 3022 3021 3020 3019 3018 3017 3016 3015 3014 3014 3013 3012 3011 3010 3009 3009 3008 3007 3006 3005 3003 3002 3000 2999 2998 2998 2998 2998 2998
3057 3056 3055 3055 3054 3053 3051 3050 3050 3048 3047 3046 3046 3045 3045 3046 3045 3045 3045 3044 3043 3042 3042 3043 3042 3042 3042 3042 3042 3042 3042 3041 3040 3040 3039 3038 3038 3037 3036 3035 3035 3034 3033 3031 3030 3029 3027 3026 3026 3025 3025 3024 3023 3022 3021 3021 3020 3019 3018 3018 3017 3016 3015 3014 3013 3013 3012 3012 3011 3010 3010 3009 3009 3008 3007 3006 3005 3004 3004 3003 3002 3001 3000 3001 3001
3052 3051 3051 3051 3051 3049 3047 3046 3046 3044 3042 3042 3042 3042 3042 3043 3042 3042 3042 3041 3041 3041 3041 3040 3040 3040 3040 3040 3039 3039 3039 3037 3037 3037 3036 3035 3034 3034 3033 3032 3031 3030 3029 3029 3028 3026 3025 3023 3022 3022 3022 3021 3020 3020 3019 3018 3018 3017 3017 3016 3015 3014 3014 3013 3012 3012 3011 3011 3010 3010 3010 3009 3009 3008 3008 3007 3006 3006 3005 3005 3004 3004 3003 3003 3004
3049 3047 3047 3047 3046 3045 3044 3043 3042 3041 3040 3040 3040 3039 3039 3040 3040 3039 3039 3039 3039 3039 3039 3038 3038 3038 3038 3038 3037 3037 3036 3034 3034 3033 3033 3032 3031 3030 3029 3029 3027 3026 3026 3026 3025 3024 3023 3021 3020 3019 3019 3018 3018 3017 3017 3016 3015 3015 3014 3014 3013 3012 3012 3011 3011 3010 3010 3009 3009 3009 3009 3008 3008 3008 3008 3008 3007 3006 3006 3006 3006 3006 3006 3006 3006
3045 3044 3043 3043 3042 3041 3040 3040 3039 3038 3038 3038 3037 3037 3037 3037 3037 3037 3037 3037 3037 3036 3036 3036 3037 3036 3035 3035 3035 3034 3033 3032 3031 3030 3030 3029 3028 3027 3026 3026 3024 3023 3023 3022 3022 3022 3021 3020 3018 3017 3016 3016 3015 3015 3014 3014 3013 3013 3012 3012 3011 3011 3010 3009 3009 3008 3008 3008 3007 3007 3007 3007 3007 3007 3007 3007 3007 3007 3007 3006 3007 3007 3007 3007 3007
3042 3041 3040 3040 3039 3038 3038 3037 3036 3036 3036 3036 3036 3036 3036 3036 3036 3035 3035 3035 3035 3035 3034 3033 3034 3034 3033 3032 3032 3031 3030 3029 3028 3027 3027 3026 3025 3024 3023 3023 3022 3021 3020 3020 3019 3019 3018 3017 3017 3016 3015 3014 3013 3012 3012 3011 3011 3010 3010 3009 3009 3009 3008 3007 3007 3006 3006 3006 3006 3005 3006 3006 3006 3006 3006 3006 3007 3007 3007 3007 3007 3007 3007 3008 3008
3039 3038 3037 3037 3036 3036 3035 3035 3035 3035 3035 3034 3034 3034 3034 3034 3033 3033 3033 3033 3033 3033 3032 3031 3030 3031 3031 3030 3029 3029 3028 3027 3026 3025 3024 3023 3022 3021 3021 3020 3019 3018 3018 3017 3017 3016 3015 3015 3015 3014 3013 3012 3011 3010 3010 3009 3008 3008 3008 3007 3007 3007 3006 3006 3005 3004 3004 3004 3003 3004 3004 3004 3004 3004 3004 3005 3005 3006 3006 3006 3006 3007 3007 3007 3008
3035 3035 3034 3034 3034 3034 3033 3033 3033 3033 3033 3032 3032 3032 3032 3032 3032 3032 3031 3031 3031 3030 3030 3029 3028 3028 3028 3027 3027 3026 3025 3024 3023 3022 3021 3021 3020 3019 3018 3018 3017 3016 3016 3015 3015 3014 3013 3013 3012 3012 3011 3011 3010 3009 3008 3007 3007 3006 3006 3005 3005 3005 3004 3004 3004 3003 3002 3002 3001 3001 3001 3002 3002 3002 3003 3003 3004 3004 3005 3005 3006 3006 3006 3007 3007
3033 3032 3032 3032 3032 3031 3031 3030 3030 3030 3030 3030 3030 3030 3030 3029 3029 3029 3029 3028 3028 3028 3027 3026 3026 3025 3024 3024 3024 3023 3022 3021 3020 3019 3019 3018 3018 3017 3016 3016 3016 3015 3015 3014 3014 3013 3012 3011 3011 3010 3010 3009 3009 3008 3007 3006 3006 3005 3004 3004 3003 3003 3002 3002 3002 3001 3001 3000 3000 2999 2999 2999 3000 3000 3000 3001 3002 3002 3003 3003 3004 3004 3005 3005 3006
3030 3030 3030 3030 3030 3029 3029 3028 3028 3028 3028 3028 3027 3027 3027 3027 3026 3026 3026 3026 3025 3025 3024 3024 3023 3023 3022 3021 3021 3020 3019 3018 3018 3017 3017 3016 3016 3016 3015 3015 3015 3014 3014 3013 3013 3012 3011 3011 3010 3009 3009 3008 3008 3007 3007 3006 3005 3004 3004 3003 3002 3002 3001 3001 3000 3000 3000 2999 2999 2998 2998 2998 2998 2998 2998 2998 2999 3000 3000 3001 3001 3002 3002 3003 3003
3028 3028 3027 3027 3027 3027 3026 3025 3025 3025 3025 3025 3024 3024 3024 3023 3023 3023 3023 3023 3022 3022 3021 3021 3020 3019 3019 3018 3018 3017 3017 3016 3016 3015 3015 3015 3015 3014 3014 3014 3013 3013 3012 3012 3012 3011 3011 3010 3009 3009 3008 3008 3007 3006 3006 3006 3005 3004 3003 3003 3002 3001 3001 3000 2999 2999 2999 2998 2998 2997 2997 2997 2997 2996 2996 2996 2996 2997 2997 2998 2998 2999 2999 3000 3000
3026 3025 3025 3025 3024 3024 3023 3022 3022 3022 3021 3021 3020 3020 3020 3020 3020 3020 3020 3020 3019 3019 3018 3017 3017 3016 3016 3015 3015 3015 3015 3014 3014 3014 3013 3013 3013 3013 3013 3012 3012 3012 3012 3011 3011 3010 3010 3009 3008 3008 3007 3007 3006 3006 3005 3005 3004 3004 3003 3002 3002 3001 3000 3000 2999 2999 2998 2998 2997 2997 2996 2996 2996 2995 2995 2995 2994 2994 2994 2995 2995 2996 2996 2997 2997
3023 3022 3022 3022 3021 3021 3020 3019 3019 3018 3018 3017 3016 3016 3016 3016 3016 3016 3016 3016 3016 3015 3015 3014 3014 3014 3013 3013 3013 3013 3013 3012 3012 3012 3012 3012 3012 3012 3011 3011 3011 3011 3010 3010 3009 3009 3008 3008 3007 3007 3006 3005 3005 3005 3004 3004 3003 3003 3002 3001 3001 3000 3000 2999 2999 2998 2997 2997 2997 2996 2996 2995 2995 2994 2994 2994 2994 2993 2993 2993 2992 2993 2993 2993 2994
3022 3021 3020 3020 3019 3018 3017 3016 3016 3016 3015 3014 3013 3013 3012 3012 3013 3013 3013 3013 3013 3012 3012 3012 3011 3011 3011 3011 3011 3011 3011 3011 3011 3011 3011 3011 3011 3010 3010 3010 3009 3009 3009 3008 3008 3007 3007 3007 3006 3006 3005 3004 3004 3003 3003 3002 3002 3001 3001 3000 2999 2999 2998 2998 2997 2997 2996 2996 2995 2995 2995 2994 2994 2994 2993 2993 2993 2992 2992 2992 2991 2991 2991 2991 2991